ABS-4 (MOBISAT-1)

Last updated on Thu Sep 10 2026 00:02:55 GMT+0000 (Coordinated Universal Time)

1 28184U 04007A 26252.59762169 .00000021 00000+0 00000+0 0 9997 2 28184 6.2487 70.9411 0005191 103.7243 90.0984 1.00273334 53180
UTC large
Height (km)
Speed (km/s)
/
Latitude / Longitude
Inclination (degrees)
Orbital Period (minutes)
Azimuth
Elevation
Range (km)
Doppler Factor

Next 0 passes for location: London (51.5072 / 0.1276)

No passes found over London.
ABS-4 (MOBISAT-1)